Flag for Italy Weather past 2 weeks in Albenga, Italy

Now
73 °F

Passing clouds.


Feels Like: 72 °F
Forecast: 71 / 83 °F
Wind: 18 mph from North

Location: Capo Mele

Current Time: Jul 30, 2015 at 2:33:20 AM

Latest Report: Jul 30, 2015 at 1:00 AM


Visibility: 13 mi

Pressure: 29.77 "Hg

Humidity: 85%

Dew point: 69 °F

Location of AlbengaLocation

Historic Weather in Albenga — Graph

°F

Albenga temperature yesterday

Maximum temperature yesterday: 84 °F (at 12:00 PM)
Minimum temperature yesterday: 71 °F (at 5:00 AM)
Average temperature yesterday: 77 °F

Past Weeks' High & Low Weather Summary

 TemperatureHumidityPressure
High90 °F (Jul 16, 3:00 PM)89% (Jul 27, 1:00 AM)30.10 "Hg (Jul 27, 1:00 AM)
Low71 °F (Jul 29, 5:00 AM)43% (Jul 26, 2:00 PM)29.67 "Hg (Jul 27, 7:00 PM)
Average80 °F77%29.89 "Hg
* Reported Jul 15 1:00 AM — Jul 30 1:00 AM, Albenga, Weather by CustomWeather, © 2015

Note: Actual official high and low records may vary slightly from our data, if they occured in-between our weather recording intervals... More about our weather records

Advertising

Albenga weather history for previous 24 hours

 ConditionsComfort  
Time TempWeatherWind HumidityBarometerVisibility
1:00 AM
Thu, Jul 30
73 °FPassing clouds.18 mph85%29.77 "Hg12 mi
12:00 AM74 °FPassing clouds.18 mph85%29.75 "Hg12 mi
11:00 PM
Wed, Jul 29
74 °FOvercast.16 mph86%29.76 "Hg12 mi
10:00 PM74 °FPassing clouds.18 mph87%29.75 "Hg12 mi
9:00 PM74 °FPassing clouds.17 mph85%29.73 "Hg12 mi
8:00 PM77 °FScattered clouds.15 mph81%29.72 "Hg6 mi
7:00 PM80 °FScattered clouds.15 mph71%29.72 "Hg6 mi
6:00 PM83 °FScattered clouds.12 mph63%29.73 "Hg6 mi
5:00 PM80 °FScattered clouds.9 mph66%29.74 "Hg6 mi
4:00 PM81 °FPassing clouds.7 mph63%29.75 "Hg12 mi
3:00 PM81 °FPassing clouds.8 mph64%29.76 "Hg12 mi
2:00 PM82 °FPassing clouds.7 mph62%29.76 "Hg12 mi
1:00 PM81 °FScattered clouds.10 mph64%29.76 "Hg12 mi
12:00 PM84 °FPassing clouds.13 mph57%29.76 "Hg12 mi
11:00 AM82 °FPassing clouds.16 mph61%29.76 "Hg12 mi
10:00 AM80 °FPassing clouds.10 mph63%29.77 "Hg12 mi
9:00 AM77 °FPassing clouds.8 mph70%29.77 "Hg6 mi
8:00 AM74 °FScattered clouds.7 mph79%29.77 "Hg6 mi
7:00 AM72 °FScattered clouds.10 mph81%29.77 "Hg12 mi
5:00 AM71 °FPassing clouds.15 mph85%29.75 "Hg12 mi
4:00 AM72 °FClear.17 mph84%29.76 "Hg12 mi
3:00 AM72 °FClear.17 mph83%29.76 "Hg12 mi
2:00 AM72 °FPassing clouds.15 mph85%29.78 "Hg12 mi
Weather by CustomWeather, © 2015

See weather overviewHow to use our weather pages